EST,Max TemperatureF,Mean TemperatureF,Min TemperatureF,Max Dew PointF,MeanDew PointF,Min DewpointF,Max Humidity, Mean Humidity, Min Humidity, Max Sea Level PressureIn, Mean Sea Level PressureIn, Min Sea Level PressureIn, Max VisibilityMiles, Mean VisibilityMiles, Min VisibilityMiles, Max Wind SpeedMPH, Mean Wind SpeedMPH, Max Gust SpeedMPH,PrecipitationIn, CloudCover, Events, WindDirDegrees
2012-11-1,44,41,37,38,36,30,100,83,65,29.80,29.74,29.68,10,9,4,16,9,24,0.00,8,,265
2012-11-2,41,37,33,30,29,27,82,71,60,30.06,29.94,29.80,10,10,10,21,8,29,0.00,7,,292
2012-11-3,45,40,34,32,30,28,96,75,53,30.19,30.13,30.06,10,10,10,10,4,14,0.00,6,,327
2012-11-4,40,36,31,34,30,28,100,82,64,30.18,30.15,30.11,10,10,6,10,4,13,0.00,8,,337
2012-11-5,39,35,30,29,27,25,85,75,64,30.20,30.17,30.12,10,10,10,8,4,10,0.00,7,,5
2012-11-6,44,34,24,28,25,22,88,69,49,30.16,30.06,29.96,10,10,10,12,5,14,0.00,0,,88
2012-11-7,49,39,28,30,28,25,85,64,42,30.12,30.01,29.91,10,10,7,15,6,20,0.00,1,,18
2012-11-8,47,37,27,33,30,27,100,79,58,30.23,30.17,30.09,10,6,1,12,4,16,0.00,1,,305
2012-11-9,54,41,28,41,34,28,100,75,50,30.26,30.20,30.13,10,6,2,16,7,21,0.09,1,Rain,187
2012-11-10,65,56,46,47,42,39,86,66,46,30.20,30.16,30.11,10,10,6,22,11,29,0.08,3,Rain,189
2012-11-11,67,60,53,40,36,32,54,43,32,30.27,30.18,30.07,10,10,10,28,16,36,0.00,0,,179
2012-11-12,62,47,31,54,41,25,100,68,35,30.35,30.10,29.99,10,8,2,35,16,47,0.61,6,Rain,225
2012-11-13,37,33,28,27,24,23,78,71,64,30.55,30.46,30.37,10,10,10,10,4,16,0.00,8,,257
2012-11-14,39,33,27,27,25,22,85,72,59,30.59,30.51,30.43,10,10,8,14,4,17,0.00,3,,69
2012-11-15,45,35,24,32,27,21,96,77,57,30.41,30.37,30.34,10,9,4,8,3,12,0.00,0,,348
2012-11-16,49,39,28,37,32,28,100,78,56,30.52,30.43,30.34,10,6,0,9,4,12,0.00,2,Fog,352
2012-11-17,54,43,32,33,29,26,96,69,41,30.62,30.56,30.52,10,10,6,12,6,15,0.00,0,,95
2012-11-18,57,44,31,30,26,21,78,52,26,30.53,30.48,30.43,10,10,10,9,5,12,0.00,0,,125
2012-11-19,57,43,29,33,29,25,85,57,28,30.41,30.33,30.21,10,10,7,8,4,9,0.00,0,,148
2012-11-20,58,47,36,42,36,32,83,63,43,30.20,30.15,30.10,10,10,9,8,3,9,T,6,Rain,198
2012-11-21,60,47,34,41,37,34,100,70,40,30.26,30.21,30.15,10,8,5,9,2,10,0.00,0,,250
2012-11-22,61,48,34,40,38,34,100,73,46,30.22,30.13,29.95,10,9,7,18,10,24,0.00,0,,183
2012-11-23,54,42,29,48,33,21,86,73,59,30.07,29.92,29.83,10,9,3,28,17,40,0.02,6,Rain-Snow,241
2012-11-24,30,29,28,25,22,19,85,77,69,30.14,30.09,30.02,10,9,2,17,9,24,0.01,8,Snow,267
2012-11-25,41,34,27,26,22,19,78,65,51,30.10,29.97,29.87,10,10,10,21,9,28,0.00,3,,219
2012-11-26,43,34,25,30,27,24,92,72,51,30.27,30.18,30.03,10,8,2,12,3,14,T,4,Snow,305
2012-11-27,36,29,22,30,24,19,92,74,56,30.35,30.28,30.22,10,8,2,12,5,15,0.01,6,Snow,327
2012-11-28,38,29,20,25,23,17,88,74,59,30.38,30.33,30.28,10,10,8,15,7,28,0.00,3,,244
2012-11-29,46,36,25,26,23,20,81,59,37,30.38,30.32,30.26,10,10,6,21,9,25,0.00,1,,203
2012-11-30,54,45,35,34,29,26,70,56,41,30.26,30.22,30.17,10,10,10,15,7,18,0.00,4,,186